This is the latest recevied weather packets stored in our database for station/object WB5TZJ. If no packets are shown the sender has not sent any weather packets the latest 10 day(s).
| Time | Temp. | Humidity | Pressure | Rain* | Wind** | Luminosity | Snow |
|---|---|---|---|---|---|---|---|
| 1777891835 | 22.78° C | 45% | 1012.5 hPa | 0 mm | - | - | - |
| 1777891235 | 22.78° C | 43% | 1012.5 hPa | 0 mm | - | - | - |
| 1777890635 | 22.78° C | 47% | 1012.5 hPa | 0 mm | - | - | - |
| 1777890035 | 22.78° C | 45% | 1012.8 hPa | 0 mm | - | - | - |
| 1777889435 | 22.78° C | 45% | 1012.5 hPa | 0 mm | - | - | - |
| 1777888835 | 22.78° C | 47% | 1012.1 hPa | 0 mm | - | - | - |
| 1777888235 | 22.78° C | 45% | 1012.8 hPa | 0 mm | - | - | - |
| 1777887635 | 22.78° C | 45% | 1012.8 hPa | 0 mm | - | - | - |
| 1777887035 | 22.78° C | 46% | 1012.8 hPa | 0 mm | - | - | - |
| 1777886435 | 22.78° C | 44% | 1012.8 hPa | 0 mm | - | - | - |
| 1777885835 | 22.78° C | 47% | 1012.8 hPa | 0 mm | - | - | - |
| 1777885235 | 22.78° C | 47% | 1013.2 hPa | 0 mm | - | - | - |
| 1777884635 | 22.78° C | 46% | 1012.8 hPa | 0 mm | - | - | - |
| 1777884035 | 22.78° C | 43% | 1013.2 hPa | 0 mm | - | - | - |
| 1777883435 | 22.78° C | 46% | 1013.2 hPa | 0 mm | - | - | - |
| 1777882835 | 22.78° C | 46% | 1012.8 hPa | 0 mm | - | - | - |
| 1777882235 | 22.78° C | 44% | 1013.2 hPa | 0 mm | - | - | - |
| 1777881635 | 22.78° C | 47% | 1013.2 hPa | 0 mm | - | - | - |
| 1777881035 | 22.22° C | 47% | 1013.5 hPa | 0 mm | - | - | - |
| 1777880435 | 22.78° C | 45% | 1013.2 hPa | 0 mm | - | - | - |
| 1777879835 | 22.78° C | 45% | 1013.5 hPa | 0 mm | - | - | - |
| 1777879235 | 22.78° C | 45% | 1013.2 hPa | 0 mm | - | - | - |
| 1777878635 | 22.78° C | 44% | 1013.5 hPa | 0 mm | - | - | - |
| 1777878035 | 22.78° C | 47% | 1013.8 hPa | 0 mm | - | - | - |
| 1777877435 | 22.78° C | 47% | 1013.8 hPa | 0 mm | - | - | - |
* Rain latest hour (hover to see other rain measurements)
** Current wind speed in m/s (hover to see current wind gust speed)